Cloud_Cover
24 35 51 53 44 70 100 100 100 44 12 5 14 6 13 36 57 90 100 100 100 100 97 76 100 87 100 100 100 100 100 100 100 100 6 92 58 62 64 5 1 0 0
20 62 29 14 5 91 100 100 100 91 15 5 5 5 26 67 80 100 100 100 100 100 87 89 100 99 100 100 100 100 100 100 100 100 99 70 5 6 100 11 77 0 0
5 25 8 5 8 98 100 100 52 5 5 0 5 5 37 54 72 100 100 100 100 100 97 100 100 100 100 100 100 100 100 100 100 100 100 100 98 6 98 16 5 4 0
5 5 41 70 100 100 100 100 5 5 5 5 5 5 5 6 98 92 78 100 84 93 100 100 100 100 100 100 100 100 100 100 100 100 100 100 100 44 94 94 6 22 0
4 73 78 98 100 100 100 8 5 5 5 5 5 5 5 20 31 8 11 55 99 100 100 100 100 100 100 100 100 100 100 100 100 100 100 100 100 39 79 85 14 85 5
5 97 62 98 100 100 80 5 5 5 5 5 5 5 5 5 5 37 100 100 100 100 100 100 100 100 100 100 100 100 100 100 100 100 100 100 100 100 100 100 100 100 100
8 62 100 100 100 100 11 5 5 5 5 5 5 5 5 5 27 98 100 100 100 100 100 100 100 100 100 100 100 100 100 100 100 100 100 100 100 100 100 100 100 100 99
37 99 99 100 100 46 6 19 33 5 5 5 5 5 5 5 5 6 94 100 100 100 100 100 100 100 100 100 100 100 100 100 100 100 100 100 100 100 100 100 97 100 100
100 100 100 100 97 57 56 8 5 1 5 5 5 5 5 5 5 11 5 5 13 81 100 100 100 100 100 100 100 100 100 100 100 100 100 100 100 100 100 100 100 100 100
100 100 100 100 86 62 5 5 4 4 5 5 5 5 5 6 84 97 100 79 5 54 99 100 100 100 100 100 100 100 100 100 100 100 100 100 100 100 100 100 100 100 100
100 57 98 92 99 35 3 5 5 2 5 4 5 5 4 3 64 92 92 19 17 96 100 100 100 100 100 100 100 100 100 100 100 100 100 100 100 100 100 100 100 100 100
79 100 95 53 5 5 5 5 5 1 5 4 0 2 3 0 38 86 92 96 94 64 45 100 100 100 100 100 100 100 100 100 100 100 100 100 100 100 100 100 100 100 100
100 100 100 100 13 5 5 5 5 5 5 5 5 2 0 4 6 92 100 100 99 76 99 100 100 100 100 100 100 100 100 100 100 100 100 100 100 100 100 100 100 100 100
100 100 100 78 5 5 5 5 5 5 4 4 2 0 0 0 9 6 39 96 100 100 100 100 100 100 100 100 100 100 100 100 97 100 100 100 100 100 100 100 100 100 100
100 100 95 8 0 5 5 5 5 5 2 0 0 0 0 2 5 6 73 100 92 100 98 100 100 99 84 100 100 100 100 99 100 97 100 100 100 100 100 100 100 100 100
100 28 2 1 5 5 5 24 5 4 0 0 0 0 5 5 6 82 98 100 100 99 52 99 100 100 100 100 100 100 100 100 100 100 100 100 100 100 100 100 100 100 100
5 0 0 5 20 7 14 5 5 0 0 0 2 5 5 68 100 99 90 98 100 92 100 84 100 100 100 100 100 100 100 100 100 100 100 100 100 100 100 100 100 100 100
0 0 5 5 5 7 19 5 4 0 0 5 5 26 61 44 76 58 62 97 100 99 96 100 100 99 100 100 100 100 100 100 100 100 100 100 100 100 100 100 100 100 100
0 4 5 5 5 5 6 5 0 0 5 5 5 26 68 46 70 14 5 63 93 100 95 100 100 100 100 100 100 100 100 100 100 100 100 100 100 100 100 100 100 100 100
5 4 5 4 5 5 5 1 0 5 5 5 11 5 5 5 22 48 99 100 100 100 100 100 100 100 100 100 100 100 100 100 100 100 100 100 100 100 100 100 100 100 100
5 5 5 5 8 5 5 0 3 5 5 5 5 5 15 100 87 100 100 100 100 100 100 100 100 100 100 100 100 100 100 100 100 100 100 100 100 100 100 100 100 100 100
5 4 33 54 4 7 2 5 5 8 6 5 5 6 88 100 100 100 100 100 100 100 100 100 100 100 100 100 100 100 100 100 100 100 100 100 100 100 100 100 100 100 100
5 35 62 2 0 0 2 5 42 52 13 5 54 97 100 100 100 100 100 100 100 100 100 100 100 100 92 100 100 100 100 100 100 100 100 100 100 100 100 100 100 100 100
6 5 5 5 5 5 64 62 51 5 17 7 92 100 98 100 100 100 100 100 100 100 100 100 100 100 100 89 98 100 100 100 100 100 100 100 100 100 100 100 100 100 100
69 5 7 62 5 75 58 68 5 5 60 82 100 100 100 100 100 100 100 100 100 100 100 100 100 100 100 100 100 100 100 100 100 100 100 100 100 100 100 100 100 100 100
5 60 41 23 84 32 9 5 5 38 100 100 100 75 100 100 100 100 100 100 100 100 100 100 100 100 100 100 100 100 100 100 100 100 100 100 100 100 100 100 100 100 100